THOR ABLESTAR DEB, 480

Orbit data source: Space-Track

THOR ABLESTAR DEB, 480 is space debris in LEO originally from a launch on Thu, 29 Jun 1961 UTC launched from the Air Force Eastern Test Range (AFETR). Debris objects in space refer to the collection of defunct objects orbiting the Earth. Examples of debris include non-operational satellites, rocket bodies, and fragments generated from explosions, collisions, or faulty payload assembly.

Loading next visibility...
Identifier
480, 1961-015FS
Orbit
LEO
Country
Flag of USUS
Related business
Manufacturer
Unknown
Mission
Spacecraft
Bus & Motor
Unknown
Mass
Unknown
Launch date (UTC)
1961-06-29 (65 years ago)
Launch vehicle
Unknown
Launch site
Air Force Eastern Test Range (AFETR)
Object type
Payload
Rocket body
Debris
Shape & HBR
Unknown shape, 0.2 m
Radar Cross Section
Small (<0.1 m²)

Expand to show TLE details & history
Last TLE update: 14 hours ago

TLE from 14 hours ago
0 THOR ABLESTAR DEB
1   480U 61015FS  26124.55429025  .00001383  00000-0  43325-3 0  9997
2   480  66.2359 179.8748 0075223 175.6494 184.5278 14.42185197348523
Epoch: 2026-05-04T13:18Z
TLE epoch observation values (Epoch: 2026-05-04T13:18:10.677Z)
Latitude
Longitude
117.88849°
Altitude
806.841 km
Speed
7.422 km/s
True Right ascension
11h 59m 29s
True Declination
0° 00' 00"
Sunlit
Object was in full shadow at epoch
Visualization orbit readout
Latitude
Unknown
Longitude
Unknown
Altitude
Unknown
Speed
Unknown
Apparent Right ascension
Unknown
Apparent Declination
Unknown
Sunlit
N/A
Visualization observer readout
Local Sidereal Time
11:12:59
Azimuth
Unknown
Elevation
Unknown
Doppler factor
Unknown
Orbital elements
Apogee altitude
803.326 km
Perigee altitude
696.09 km
Semi-major axis
7,127.845 km
Eccentricity
0.00752
Inclination
66.2359°
RAAN
179.8748°
Arg. of periapsis
175.6494°
True anomaly
184.46038°
Mean anomaly
184.5278°
Eccentric anomaly
184.49403°
Mean motion
3.60666 °/min
Orbital period
99.82 mins
BSTAR
0.00043325
Loading maneuver chart data...
Computing Atmospheric mass density...
Loading historical data...
Loading historical data...
Loading historical data...
Loading historical data...
Loading historical data...
Loading historical data...
Loading historical data...

Documentation

Showing up to 5 results
|